Flag for Sierra Leone Weather past 2 weeks in Kenema, Sierra Leone

Now
77 °F

Passing clouds.


Feels Like: 78 °F
Forecast: N/A
Wind: No wind

Location: Roberts Field

Current Time: Aug 23, 2014 at 8:29:38 PM

Latest Report: Aug 23, 2014 at 8:00 PM


Visibility: N/A

Pressure: 29.95 "Hg

Humidity: 89%

Dew point: 73 °F

Location of KenemaLocation

Historic Weather in Kenema — Graph

°F

Kenema temperature yesterday

Maximum temperature yesterday: 82 °F (at 11:00 AM)
Minimum temperature yesterday: 75 °F (at 5:00 AM)
Average temperature yesterday: 78 °F

Past Weeks' High & Low Weather Summary

 TemperatureHumidityPressure
High82 °F (Aug 15, 2:30 PM)100% (Aug 9, 6:00 PM)30.04 "Hg (Aug 9, 6:00 PM)
Low72 °F (Aug 18, 6:00 AM)74% (Aug 11, 4:30 PM)29.89 "Hg (Aug 9, 3:00 AM)
Average77 °F90%29.96 "Hg
* Reported Aug 8 7:00 PM — Aug 23 7:30 PM, Kenema, Weather by CustomWeather, © 2014

Note: Actual official high and low records may vary slightly from our data, if they occured in-between our weather recording intervals... More about our weather records

Advertising

Kenema weather history for previous 24 hours

 ConditionsComfort  
Time TempWeatherWind HumidityBarometerVisibility
7:30 PM
Aug 23
77 °FPartly sunny.No wind89%29.95 "HgN/A
7:00 PM77 °FPartly sunny.No wind89%29.92 "HgN/A
6:30 PM79 °FPartly sunny.6 mph84%29.92 "HgN/A
6:00 PM79 °FPartly sunny.7 mph84%29.92 "HgN/A
5:30 PM81 °FPartly sunny.7 mph79%29.92 "HgN/A
5:00 PM81 °FPartly sunny.8 mph79%29.89 "HgN/A
4:30 PM81 °FPartly sunny.16 mph79%29.89 "HgN/A
4:00 PM82 °FPartly sunny.9 mph74%29.89 "HgN/A
3:30 PM82 °FPartly sunny.13 mph74%29.92 "HgN/A
3:00 PM82 °FPartly sunny.12 mph74%29.92 "HgN/A
8:00 AM75 °FScattered clouds.No wind94%29.98 "HgN/A
7:30 AM75 °FPassing clouds.No wind94%29.95 "HgN/A
7:00 AM73 °FPassing clouds.No wind94%29.95 "HgN/A
6:30 AM73 °FPassing clouds.No wind94%29.95 "HgN/A
6:00 AM75 °FPassing clouds.No wind94%29.95 "HgN/A
5:00 AM75 °FPassing clouds.No wind94%29.95 "HgN/A
4:00 AM75 °FPassing clouds.No wind94%29.95 "HgN/A
3:00 AM75 °FPassing clouds.No wind94%29.95 "HgN/A
12:30 AM75 °FPassing clouds.No wind94%29.98 "HgN/A
12:00 AM75 °FPassing clouds.No wind94%30.01 "HgN/A
11:30 PM
Aug 22
75 °FPassing clouds.3 mph94%30.01 "HgN/A
11:00 PM75 °FPassing clouds.3 mph94%29.98 "HgN/A
10:30 PM75 °FPassing clouds.6 mph94%29.98 "HgN/A
9:00 PM75 °FPassing clouds.5 mph94%29.95 "HgN/A
8:00 PM77 °FPassing clouds.5 mph83%29.95 "HgN/A
Weather by CustomWeather, © 2014

See weather overviewHow to use our weather pages